Winslow, AZ

1:49 AM MST on October 17, 2017 (GMT -0700)
Winslow-Lindbergh Regional

Weather History for KINW - March, 2014

Change the Weather History Date:

Sunday, March 16, 2014

  Actual Average Record
Temperature  
Mean Temperature 46 °F 47 °F  
Max Temperature 66 °F 64 °F 81 °F (1974)
Min Temperature 26 °F 31 °F 13 °F (1923)
Degree Days  
Heating Degree Days 19 18  
Month to date heating degree days 270 313  
Since 1 July heating degree days 3637 3808  
Cooling Degree Days 0 0  
Month to date cooling degree days 0 0  
Year to date cooling degree days 0 0  
Moisture  
Dew Point 9 °F    
Average Humidity 31    
Maximum Humidity 50    
Minimum Humidity 11    
Precipitation  
Precipitation 0.00 in 0.02 in 0.66 in (1937)
Month to date precipitation 0.99 0.26  
Year to date precipitation 1.01 1.24  
Sea Level Pressure  
Sea Level Pressure 30.27 in    
Wind  
Wind Speed 7 mph (West)    
Max Wind Speed 17 mph    
Max Gust Speed 22 mph    
Visibility 10 miles    
Events      
T = Trace of Precipitation, MM = Missing Value Source: NWS Daily Summary

Daily Weather History Graph

Daily Weather History Graph

Search for Another Location

Airport or City:

Trip Planner

Search our weather history database for the weather conditions in past years. The results will help you decide how hot, cold, wet, or windy it might be!

Date:

Astronomy

Mar. 16, 2014 Rise Set
Actual Time 6:32 AM MST 6:31 PM MST
Civil Twilight 6:06 AM MST 6:56 PM MST
Nautical Twilight 5:37 AM MST 7:26 PM MST
Astronomical Twilight 5:07 AM MST 7:55 PM MST
Moon 6:50 PM MST (3/16) 6:18 AM MST (3/16)
Length of Visible Light 12h 49m
Length of Day
11h 59m
Full, 100% of the Moon is Illuminated
Mar 16
Full
Mar 23
Last Quarter
Mar 30
New
Apr 7
First Quarter
Apr 15
Full

Hourly Weather History & Observations

Time (MST) Temp. Windchill Dew Point Humidity Pressure Visibility Wind Dir Wind Speed Gust Speed Precip Events Conditions
12:56 AM 34.0 °F - 7.0 °F 32% 30.31 in 10.0 mi Calm Calm - N/A   Clear
1:56 AM 30.9 °F 22.8 °F 7.0 °F 37% 30.33 in 10.0 mi WSW 9.2 mph - N/A   Clear
2:56 AM 32.0 °F 25.6 °F 8.1 °F 37% 30.33 in 10.0 mi SW 6.9 mph - N/A   Clear
3:56 AM 30.0 °F 23.2 °F 9.0 °F 41% 30.34 in 10.0 mi SW 6.9 mph - N/A   Clear
4:56 AM 28.9 °F 21.9 °F 10.0 °F 45% 30.35 in 10.0 mi WSW 6.9 mph - N/A   Clear
5:56 AM 28.9 °F - 9.0 °F 43% 30.37 in 10.0 mi Calm Calm - N/A   Clear
6:56 AM 27.0 °F - 10.9 °F 51% 30.39 in 10.0 mi Calm Calm - N/A   Clear
7:56 AM 37.0 °F - 10.0 °F 33% 30.38 in 10.0 mi Calm Calm - N/A   Clear
8:56 AM 46.0 °F 43.1 °F 8.1 °F 21% 30.37 in 10.0 mi NW 5.8 mph - N/A   Clear
9:56 AM 50.0 °F - 9.0 °F 19% 30.36 in 10.0 mi NW 6.9 mph - N/A   Clear
10:56 AM 55.0 °F - 8.1 °F 15% 30.33 in 10.0 mi NNW 6.9 mph - N/A   Clear
11:56 AM 59.0 °F - 7.0 °F 13% 30.30 in 10.0 mi North 13.8 mph 19.6 mph N/A   Clear
12:56 PM 61.0 °F - 9.0 °F 13% 30.28 in 10.0 mi NW 12.7 mph - N/A   Clear
1:56 PM 63.0 °F - 9.0 °F 12% 30.25 in 10.0 mi North 12.7 mph 18.4 mph N/A   Clear
2:56 PM 64.0 °F - 8.1 °F 11% 30.23 in 10.0 mi West 11.5 mph 17.3 mph N/A   Clear
3:56 PM 64.9 °F - 8.1 °F 11% 30.20 in 10.0 mi NNW 10.4 mph 17.3 mph N/A   Clear
4:56 PM 64.9 °F - 8.1 °F 11% 30.19 in 10.0 mi WNW 10.4 mph - N/A   Clear
5:56 PM 63.0 °F - 7.0 °F 11% 30.19 in 10.0 mi West 10.4 mph - N/A   Clear
6:56 PM 53.1 °F - 10.0 °F 18% 30.22 in 10.0 mi WSW 8.1 mph - N/A   Clear
7:56 PM 46.9 °F - 12.0 °F 24% 30.20 in 10.0 mi SW 8.1 mph - N/A   Clear
8:56 PM 44.1 °F 39.5 °F 12.9 °F 28% 30.18 in 10.0 mi SW 8.1 mph - N/A   Clear
9:56 PM 43.0 °F 38.2 °F 12.9 °F 30% 30.16 in 10.0 mi SW 8.1 mph - N/A   Clear
10:56 PM 42.1 °F 37.7 °F 12.9 °F 31% 30.14 in 10.0 mi WSW 6.9 mph - N/A   Clear
11:56 PM 43.0 °F 41.3 °F 12.9 °F 30% 30.11 in 10.0 mi East 3.5 mph - N/A   Clear